contact:dominique.lefevre@mio.osupytheas.fr, maurice.libes@osupytheas.fr, didier.mallarino@osupytheas.fr
Project:EMSO http://www.emso-fr.org/EMSO-France
Depth: 2436.0 m
Title:EMSO Ligure Ouest : Data MII capteur MICROCAT
DateTime_Computer,Latitude,Longitude,Temperature,Conductivity,Pressure,DateTime_Instrument
DateTime_Computer,Latitude,Longitude,degC,S m-1,dbar,DateTime_Instrument
2022-06-01T00:02:08Z,42.805,6.029,13.3009,4.60064,2470.693,2022-6-01T02:03:50Z
2022-06-01T00:05:11Z,42.805,6.029,13.3010,4.60057,2470.717,2022-6-01T02:06:53Z
2022-06-01T00:08:14Z,42.805,6.029,13.3017,4.60061,2470.693,2022-6-01T02:09:56Z
2022-06-01T00:11:17Z,42.805,6.029,13.3006,4.60069,2470.717,2022-6-01T02:12:59Z
2022-06-01T00:14:20Z,42.805,6.029,13.3015,4.60062,2470.707,2022-6-01T02:16:02Z
2022-06-01T00:17:23Z,42.805,6.029,13.3014,4.60082,2470.717,2022-6-01T02:19:06Z
2022-06-01T00:20:27Z,42.805,6.029,13.3019,4.60076,2470.646,2022-6-01T02:22:09Z
2022-06-01T00:23:30Z,42.805,6.029,13.3012,4.60074,2470.67,2022-6-01T02:25:12Z
2022-06-01T00:26:33Z,42.805,6.029,13.3006,4.60057,2470.707,2022-6-01T02:28:15Z
2022-06-01T00:29:36Z,42.805,6.029,13.3009,4.60080,2470.661,2022-6-01T02:31:18Z
2022-06-01T00:32:39Z,42.805,6.029,13.3014,4.60069,2470.684,2022-6-01T02:34:21Z
2022-06-01T00:35:42Z,42.805,6.029,13.3009,4.60084,2470.656,2022-6-01T02:37:24Z
2022-06-01T00:38:45Z,42.805,6.029,13.3017,4.60085,2470.693,2022-6-01T02:40:27Z
2022-06-01T00:41:48Z,42.805,6.029,13.3011,4.60075,2470.661,2022-6-01T02:43:31Z
2022-06-01T00:44:51Z,42.805,6.029,13.3009,4.60069,2470.67,2022-6-01T02:46:34Z
2022-06-01T00:47:55Z,42.805,6.029,13.3014,4.60067,2470.67,2022-6-01T02:49:37Z
2022-06-01T00:50:58Z,42.805,6.029,13.3017,4.60076,2470.624,2022-6-01T02:52:40Z
2022-06-01T00:54:01Z,42.805,6.029,13.3015,4.60072,2470.693,2022-6-01T02:55:43Z
2022-06-01T00:57:04Z,42.805,6.029,13.3008,4.60062,2470.661,2022-6-01T02:58:46Z
2022-06-01T01:00:07Z,42.805,6.029,13.3004,4.60077,2470.661,2022-6-01T03:01:49Z
2022-06-01T01:03:10Z,42.805,6.029,13.3016,4.60072,2470.67,2022-6-01T03:04:52Z
2022-06-01T01:06:13Z,42.805,6.029,13.3026,4.60087,2470.646,2022-6-01T03:07:55Z
2022-06-01T01:09:16Z,42.805,6.029,13.3017,4.60072,2470.661,2022-6-01T03:10:59Z
2022-06-01T01:12:20Z,42.805,6.029,13.3018,4.60075,2470.646,2022-6-01T03:14:02Z
2022-06-01T01:15:23Z,42.805,6.029,13.3019,4.60085,2470.684,2022-6-01T03:17:05Z
2022-06-01T01:18:26Z,42.805,6.029,13.3015,4.60074,2470.67,2022-6-01T03:20:08Z
2022-06-01T01:21:29Z,42.805,6.029,13.3009,4.60072,2470.624,2022-6-01T03:23:11Z
2022-06-01T01:24:32Z,42.805,6.029,13.3015,4.60070,2470.67,2022-6-01T03:26:14Z
2022-06-01T01:27:35Z,42.805,6.029,13.3011,4.60066,2470.646,2022-6-01T03:29:17Z
2022-06-01T01:30:38Z,42.805,6.029,13.3011,4.60073,2470.67,2022-6-01T03:32:20Z
2022-06-01T01:33:41Z,42.805,6.029,13.3015,4.60081,2470.661,2022-6-01T03:35:24Z
2022-06-01T01:36:44Z,42.805,6.029,13.3008,4.60077,2470.684,2022-6-01T03:38:27Z
2022-06-01T01:39:48Z,42.805,6.029,13.3023,4.60074,2470.661,2022-6-01T03:41:30Z
2022-06-01T01:42:51Z,42.805,6.029,13.3018,4.60069,2470.684,2022-6-01T03:44:33Z
2022-06-01T01:45:54Z,42.805,6.029,13.3019,4.60072,2470.684,2022-6-01T03:47:36Z
2022-06-01T01:48:57Z,42.805,6.029,13.3009,4.60082,2470.646,2022-6-01T03:50:39Z
2022-06-01T01:52:00Z,42.805,6.029,13.3021,4.60072,2470.624,2022-6-01T03:53:42Z
2022-06-01T01:55:03Z,42.805,6.029,13.3019,4.60072,2470.646,2022-6-01T03:56:45Z
2022-06-01T01:58:06Z,42.805,6.029,13.3009,4.60070,2470.661,2022-6-01T03:59:48Z
2022-06-01T02:01:09Z,42.805,6.029,13.3011,4.60064,2470.637,2022-6-01T04:02:52Z
2022-06-01T02:04:13Z,42.805,6.029,13.3015,4.60079,2470.624,2022-6-01T04:05:55Z
2022-06-01T02:07:16Z,42.805,6.029,13.3014,4.60072,2470.637,2022-6-01T04:08:58Z
2022-06-01T02:10:19Z,42.805,6.029,13.3022,4.60073,2470.637,2022-6-01T04:12:01Z
2022-06-01T02:13:22Z,42.805,6.029,13.3028,4.60076,2470.624,2022-6-01T04:15:04Z
2022-06-01T02:16:25Z,42.805,6.029,13.3014,4.60064,2470.661,2022-6-01T04:18:07Z
2022-06-01T02:19:28Z,42.805,6.029,13.3012,4.60079,2470.6,2022-6-01T04:21:10Z
2022-06-01T02:22:31Z,42.805,6.029,13.3006,4.60058,2470.624,2022-6-01T04:24:13Z
2022-06-01T02:25:34Z,42.805,6.029,13.3007,4.60073,2470.661,2022-6-01T04:27:17Z
2022-06-01T02:28:37Z,42.805,6.029,13.3017,4.60087,2470.614,2022-6-01T04:30:20Z
2022-06-01T02:31:41Z,42.805,6.029,13.3015,4.60082,2470.646,2022-6-01T04:33:23Z
2022-06-01T02:34:44Z,42.805,6.029,13.3019,4.60096,2470.637,2022-6-01T04:36:26Z
2022-06-01T02:37:47Z,42.805,6.029,13.3012,4.60080,2470.637,2022-6-01T04:39:29Z
2022-06-01T02:40:50Z,42.805,6.029,13.3015,4.60054,2470.637,2022-6-01T04:42:32Z
2022-06-01T02:43:53Z,42.805,6.029,13.3011,4.60091,2470.591,2022-6-01T04:45:35Z
2022-06-01T02:46:56Z,42.805,6.029,13.3022,4.60073,2470.661,2022-6-01T04:48:38Z
2022-06-01T02:49:59Z,42.805,6.029,13.3012,4.60081,2470.61,2022-6-01T04:51:41Z
2022-06-01T02:53:02Z,42.805,6.029,13.3012,4.60076,2470.624,2022-6-01T04:54:45Z
2022-06-01T02:56:06Z,42.805,6.029,13.3007,4.60049,2470.624,2022-6-01T04:57:48Z
2022-06-01T02:59:09Z,42.805,6.029,13.3011,4.60067,2470.637,2022-6-01T05:00:51Z
2022-06-01T03:02:12Z,42.805,6.029,13.3015,4.60074,2470.646,2022-6-01T05:03:54Z
2022-06-01T03:05:15Z,42.805,6.029,13.3014,4.60080,2470.637,2022-6-01T05:06:57Z
2022-06-01T03:08:18Z,42.805,6.029,13.3010,4.60074,2470.624,2022-6-01T05:10:00Z
2022-06-01T03:11:21Z,42.805,6.029,13.3019,4.60058,2470.646,2022-6-01T05:13:03Z
2022-06-01T03:14:24Z,42.805,6.029,13.3007,4.60053,2470.637,2022-6-01T05:16:06Z
2022-06-01T03:17:27Z,42.805,6.029,13.3011,4.60058,2470.624,2022-6-01T05:19:10Z
2022-06-01T03:20:30Z,42.805,6.029,13.3011,4.60064,2470.6,2022-6-01T05:22:13Z
2022-06-01T03:23:34Z,42.805,6.029,13.3009,4.60067,2470.637,2022-6-01T05:25:16Z
2022-06-01T03:26:37Z,42.805,6.029,13.3011,4.60062,2470.591,2022-6-01T05:28:19Z
2022-06-01T03:29:40Z,42.805,6.029,13.3008,4.60058,2470.646,2022-6-01T05:31:22Z
2022-06-01T03:32:43Z,42.805,6.029,13.3019,4.60069,2470.646,2022-6-01T05:34:25Z
2022-06-01T03:35:46Z,42.805,6.029,13.3009,4.60080,2470.577,2022-6-01T05:37:28Z
2022-06-01T03:38:49Z,42.805,6.029,13.3021,4.60081,2470.637,2022-6-01T05:40:31Z
2022-06-01T03:41:52Z,42.805,6.029,13.3015,4.60077,2470.624,2022-6-01T05:43:34Z
2022-06-01T03:44:55Z,42.805,6.029,13.3020,4.60079,2470.646,2022-6-01T05:46:38Z
2022-06-01T03:47:59Z,42.805,6.029,13.3016,4.60078,2470.614,2022-6-01T05:49:41Z
2022-06-01T03:51:02Z,42.805,6.029,13.3015,4.60069,2470.624,2022-6-01T05:52:44Z
2022-06-01T03:54:05Z,42.805,6.029,13.3006,4.60059,2470.646,2022-6-01T05:55:47Z
2022-06-01T03:57:08Z,42.805,6.029,13.3020,4.60062,2470.6,2022-6-01T05:58:50Z
2022-06-01T04:00:11Z,42.805,6.029,13.3012,4.60085,2470.637,2022-6-01T06:01:53Z
2022-06-01T04:03:14Z,42.805,6.029,13.3015,4.60079,2470.646,2022-6-01T06:04:56Z
2022-06-01T04:06:17Z,42.805,6.029,13.3012,4.60070,2470.661,2022-6-01T06:07:59Z
2022-06-01T04:09:20Z,42.805,6.029,13.3015,4.60087,2470.661,2022-6-01T06:11:03Z
2022-06-01T04:12:23Z,42.805,6.029,13.3011,4.60073,2470.646,2022-6-01T06:14:06Z
2022-06-01T04:15:27Z,42.805,6.029,13.3008,4.60084,2470.624,2022-6-01T06:17:09Z
2022-06-01T04:18:30Z,42.805,6.029,13.3019,4.60079,2470.624,2022-6-01T06:20:12Z
2022-06-01T04:21:33Z,42.805,6.029,13.3015,4.60072,2470.591,2022-6-01T06:23:15Z
2022-06-01T04:24:36Z,42.805,6.029,13.3012,4.60074,2470.646,2022-6-01T06:26:18Z
2022-06-01T04:27:39Z,42.805,6.029,13.3012,4.60089,2470.637,2022-6-01T06:29:21Z
2022-06-01T04:30:42Z,42.805,6.029,13.3021,4.60076,2470.646,2022-6-01T06:32:24Z
2022-06-01T04:33:45Z,42.805,6.029,13.3011,4.60074,2470.661,2022-6-01T06:35:27Z
2022-06-01T04:36:48Z,42.805,6.029,13.3014,4.60067,2470.624,2022-6-01T06:38:31Z
2022-06-01T04:39:52Z,42.805,6.029,13.3015,4.60081,2470.67,2022-6-01T06:41:34Z
2022-06-01T04:42:55Z,42.805,6.029,13.3021,4.60060,2470.646,2022-6-01T06:44:37Z
2022-06-01T04:45:58Z,42.805,6.029,13.3021,4.60084,2470.646,2022-6-01T06:47:40Z
2022-06-01T04:49:01Z,42.805,6.029,13.3010,4.60072,2470.646,2022-6-01T06:50:43Z
2022-06-01T04:52:04Z,42.805,6.029,13.3015,4.60074,2470.646,2022-6-01T06:53:46Z
2022-06-01T04:55:07Z,42.805,6.029,13.3014,4.60067,2470.656,2022-6-01T06:56:49Z
2022-06-01T04:58:10Z,42.805,6.029,13.3018,4.60076,2470.646,2022-6-01T06:59:52Z
2022-06-01T05:01:13Z,42.805,6.029,13.3005,4.60065,2470.661,2022-6-01T07:02:56Z
2022-06-01T05:04:16Z,42.805,6.029,13.3013,4.60066,2470.661,2022-6-01T07:05:59Z
2022-06-01T05:07:20Z,42.805,6.029,13.3009,4.60082,2470.661,2022-6-01T07:09:02Z
2022-06-01T05:10:23Z,42.805,6.029,13.3024,4.60093,2470.67,2022-6-01T07:12:05Z
2022-06-01T05:13:26Z,42.805,6.029,13.3015,4.60062,2470.646,2022-6-01T07:15:08Z
2022-06-01T05:16:29Z,42.805,6.029,13.3014,4.60060,2470.67,2022-6-01T07:18:11Z
2022-06-01T05:19:32Z,42.805,6.029,13.3003,4.60057,2470.646,2022-6-01T07:21:14Z
2022-06-01T05:22:35Z,42.805,6.029,13.3019,4.60064,2470.684,2022-6-01T07:24:17Z
2022-06-01T05:25:38Z,42.805,6.029,13.3019,4.60092,2470.684,2022-6-01T07:27:20Z
2022-06-01T05:28:41Z,42.805,6.029,13.3014,4.60074,2470.67,2022-6-01T07:30:24Z
2022-06-01T05:31:44Z,42.805,6.029,13.3020,4.60080,2470.661,2022-6-01T07:33:27Z
2022-06-01T05:34:48Z,42.805,6.029,13.3014,4.60073,2470.67,2022-6-01T07:36:30Z
2022-06-01T05:37:51Z,42.805,6.029,13.3015,4.60095,2470.684,2022-6-01T07:39:33Z
2022-06-01T05:40:54Z,42.805,6.029,13.3012,4.60081,2470.707,2022-6-01T07:42:36Z
2022-06-01T05:43:57Z,42.805,6.029,13.3029,4.60107,2470.707,2022-6-01T07:45:39Z
2022-06-01T05:47:00Z,42.805,6.029,13.3019,4.60085,2470.67,2022-6-01T07:48:42Z
2022-06-01T05:50:03Z,42.805,6.029,13.3017,4.60087,2470.661,2022-6-01T07:51:45Z
2022-06-01T05:53:06Z,42.805,6.029,13.3018,4.60094,2470.67,2022-6-01T07:54:49Z
2022-06-01T05:56:09Z,42.805,6.029,13.3013,4.60089,2470.67,2022-6-01T07:57:52Z
2022-06-01T05:59:13Z,42.805,6.029,13.3016,4.60099,2470.693,2022-6-01T08:00:55Z
2022-06-01T06:02:16Z,42.805,6.029,13.3015,4.60086,2470.67,2022-6-01T08:03:58Z
2022-06-01T06:05:19Z,42.805,6.029,13.3015,4.60079,2470.693,2022-6-01T08:07:01Z
2022-06-01T06:08:22Z,42.805,6.029,13.3024,4.60099,2470.707,2022-6-01T08:10:04Z
2022-06-01T06:11:25Z,42.805,6.029,13.3026,4.60102,2470.684,2022-6-01T08:13:07Z
2022-06-01T06:14:28Z,42.805,6.029,13.3039,4.60108,2470.707,2022-6-01T08:16:10Z
2022-06-01T06:17:31Z,42.805,6.029,13.3041,4.60102,2470.73,2022-6-01T08:19:13Z
2022-06-01T06:20:34Z,42.805,6.029,13.3018,4.60094,2470.693,2022-6-01T08:22:17Z
2022-06-01T06:23:37Z,42.805,6.029,13.3011,4.60086,2470.693,2022-6-01T08:25:20Z
2022-06-01T06:26:41Z,42.805,6.029,13.3022,4.60094,2470.707,2022-6-01T08:28:23Z
2022-06-01T06:29:44Z,42.805,6.029,13.3021,4.60087,2470.693,2022-6-01T08:31:26Z
2022-06-01T06:32:47Z,42.805,6.029,13.3020,4.60103,2470.717,2022-6-01T08:34:29Z
2022-06-01T06:35:50Z,42.805,6.029,13.3013,4.60082,2470.67,2022-6-01T08:37:32Z
2022-06-01T06:38:53Z,42.805,6.029,13.3030,4.60121,2470.717,2022-6-01T08:40:35Z
2022-06-01T06:41:56Z,42.805,6.029,13.3021,4.60090,2470.707,2022-6-01T08:43:38Z
2022-06-01T06:44:59Z,42.805,6.029,13.3025,4.60108,2470.73,2022-6-01T08:46:41Z
2022-06-01T06:48:02Z,42.805,6.029,13.3025,4.60110,2470.693,2022-6-01T08:49:45Z
2022-06-01T06:51:06Z,42.805,6.029,13.3021,4.60096,2470.717,2022-6-01T08:52:48Z
2022-06-01T06:54:09Z,42.805,6.029,13.3021,4.60106,2470.73,2022-6-01T08:55:51Z
2022-06-01T06:57:12Z,42.805,6.029,13.3019,4.60108,2470.707,2022-6-01T08:58:54Z
2022-06-01T07:00:15Z,42.805,6.029,13.3028,4.60101,2470.693,2022-6-01T09:01:57Z
2022-06-01T07:03:18Z,42.805,6.029,13.3021,4.60096,2470.717,2022-6-01T09:05:00Z
2022-06-01T07:06:21Z,42.805,6.029,13.3011,4.60098,2470.73,2022-6-01T09:08:03Z
2022-06-01T07:09:24Z,42.805,6.029,13.3026,4.60091,2470.754,2022-6-01T09:11:06Z
2022-06-01T07:12:27Z,42.805,6.029,13.3021,4.60102,2470.754,2022-6-01T09:14:10Z
2022-06-01T07:15:30Z,42.805,6.029,13.3023,4.60113,2470.717,2022-6-01T09:17:13Z
2022-06-01T07:18:34Z,42.805,6.029,13.3024,4.60080,2470.717,2022-6-01T09:20:16Z
2022-06-01T07:21:37Z,42.805,6.029,13.3014,4.60090,2470.707,2022-6-01T09:23:19Z
2022-06-01T07:24:40Z,42.805,6.029,13.3019,4.60101,2470.74,2022-6-01T09:26:22Z
2022-06-01T07:27:43Z,42.805,6.029,13.3015,4.60074,2470.707,2022-6-01T09:29:25Z
2022-06-01T07:30:46Z,42.805,6.029,13.3031,4.60087,2470.717,2022-6-01T09:32:28Z
2022-06-01T07:33:49Z,42.805,6.029,13.3013,4.60072,2470.73,2022-6-01T09:35:31Z
2022-06-01T07:36:52Z,42.805,6.029,13.3015,4.60087,2470.74,2022-6-01T09:38:34Z
2022-06-01T07:39:55Z,42.805,6.029,13.3020,4.60093,2470.717,2022-6-01T09:41:38Z
2022-06-01T07:42:58Z,42.805,6.029,13.3014,4.60086,2470.73,2022-6-01T09:44:41Z
2022-06-01T07:46:02Z,42.805,6.029,13.3026,4.60092,2470.717,2022-6-01T09:47:44Z
2022-06-01T07:49:05Z,42.805,6.029,13.3026,4.60104,2470.754,2022-6-01T09:50:47Z
2022-06-01T07:52:08Z,42.805,6.029,13.3019,4.60095,2470.693,2022-6-01T09:53:50Z
2022-06-01T07:55:11Z,42.805,6.029,13.3015,4.60084,2470.717,2022-6-01T09:56:53Z
2022-06-01T07:58:14Z,42.805,6.029,13.3014,4.60084,2470.754,2022-6-01T09:59:56Z
2022-06-01T08:01:17Z,42.805,6.029,13.3029,4.60097,2470.693,2022-6-01T10:02:59Z
2022-06-01T08:04:20Z,42.805,6.029,13.3032,4.60077,2470.73,2022-6-01T10:06:03Z
2022-06-01T08:07:23Z,42.805,6.029,13.3021,4.60092,2470.693,2022-6-01T10:09:06Z
2022-06-01T08:10:27Z,42.805,6.029,13.3011,4.60084,2470.684,2022-6-01T10:12:09Z
2022-06-01T08:13:30Z,42.805,6.029,13.3012,4.60089,2470.693,2022-6-01T10:15:12Z
2022-06-01T08:16:33Z,42.805,6.029,13.3015,4.60087,2470.693,2022-6-01T10:18:15Z
2022-06-01T08:19:36Z,42.805,6.029,13.3015,4.60095,2470.707,2022-6-01T10:21:18Z
2022-06-01T08:22:39Z,42.805,6.029,13.3024,4.60099,2470.693,2022-6-01T10:24:21Z
2022-06-01T08:25:42Z,42.805,6.029,13.3019,4.60103,2470.73,2022-6-01T10:27:24Z
2022-06-01T08:28:45Z,42.805,6.029,13.3021,4.60089,2470.717,2022-6-01T10:30:27Z
2022-06-01T08:31:48Z,42.805,6.029,13.3011,4.60101,2470.717,2022-6-01T10:33:31Z
2022-06-01T08:34:51Z,42.805,6.029,13.3015,4.60082,2470.717,2022-6-01T10:36:34Z
2022-06-01T08:37:55Z,42.805,6.029,13.3017,4.60081,2470.717,2022-6-01T10:39:37Z
2022-06-01T08:40:58Z,42.805,6.029,13.3010,4.60084,2470.717,2022-6-01T10:42:40Z
2022-06-01T08:44:01Z,42.805,6.029,13.3018,4.60097,2470.717,2022-6-01T10:45:43Z
2022-06-01T08:47:04Z,42.805,6.029,13.3014,4.60089,2470.693,2022-6-01T10:48:46Z
2022-06-01T08:50:07Z,42.805,6.029,13.3021,4.60085,2470.693,2022-6-01T10:51:49Z
2022-06-01T08:53:10Z,42.805,6.029,13.3009,4.60072,2470.693,2022-6-01T10:54:52Z
2022-06-01T08:56:13Z,42.805,6.029,13.3011,4.60110,2470.717,2022-6-01T10:57:56Z
2022-06-01T08:59:16Z,42.805,6.029,13.3017,4.60094,2470.693,2022-6-01T11:00:59Z
2022-06-01T09:02:20Z,42.805,6.029,13.3011,4.60069,2470.717,2022-6-01T11:04:02Z
2022-06-01T09:05:23Z,42.805,6.029,13.3014,4.60085,2470.693,2022-6-01T11:07:05Z
2022-06-01T09:08:26Z,42.805,6.029,13.3013,4.60079,2470.693,2022-6-01T11:10:08Z
2022-06-01T09:11:29Z,42.805,6.029,13.3013,4.60069,2470.67,2022-6-01T11:13:11Z
2022-06-01T09:14:32Z,42.805,6.029,13.3014,4.60084,2470.717,2022-6-01T11:16:14Z
2022-06-01T09:17:35Z,42.805,6.029,13.3021,4.60078,2470.693,2022-6-01T11:19:17Z
2022-06-01T09:20:38Z,42.805,6.029,13.3021,4.60068,2470.707,2022-6-01T11:22:21Z
2022-06-01T09:23:41Z,42.805,6.029,13.3012,4.60065,2470.707,2022-6-01T11:25:24Z
2022-06-01T09:26:45Z,42.805,6.029,13.3008,4.60069,2470.67,2022-6-01T11:28:27Z
2022-06-01T09:29:48Z,42.805,6.029,13.3009,4.60065,2470.693,2022-6-01T11:31:30Z
2022-06-01T09:32:51Z,42.805,6.029,13.3009,4.60074,2470.67,2022-6-01T11:34:33Z
2022-06-01T09:35:54Z,42.805,6.029,13.3010,4.60066,2470.67,2022-6-01T11:37:36Z
2022-06-01T09:38:57Z,42.805,6.029,13.3009,4.60077,2470.67,2022-6-01T11:40:39Z
2022-06-01T09:42:00Z,42.805,6.029,13.3021,4.60089,2470.67,2022-6-01T11:43:42Z
2022-06-01T09:45:03Z,42.805,6.029,13.3009,4.60091,2470.707,2022-6-01T11:46:46Z
2022-06-01T09:48:06Z,42.805,6.029,13.3015,4.60084,2470.693,2022-6-01T11:49:49Z
2022-06-01T09:51:10Z,42.805,6.029,13.3013,4.60103,2470.684,2022-6-01T11:52:52Z
2022-06-01T09:54:13Z,42.805,6.029,13.3014,4.60097,2470.67,2022-6-01T11:55:55Z
2022-06-01T09:57:16Z,42.805,6.029,13.3016,4.60077,2470.707,2022-6-01T11:58:58Z
2022-06-01T10:00:19Z,42.805,6.029,13.3021,4.60079,2470.684,2022-6-01T12:02:01Z
2022-06-01T10:03:22Z,42.805,6.029,13.3009,4.60079,2470.684,2022-6-01T12:05:04Z
2022-06-01T10:06:25Z,42.805,6.029,13.3016,4.60081,2470.67,2022-6-01T12:08:07Z
2022-06-01T10:09:28Z,42.805,6.029,13.3010,4.60066,2470.67,2022-6-01T12:11:10Z
2022-06-01T10:12:31Z,42.805,6.029,13.3009,4.60084,2470.661,2022-6-01T12:14:14Z
2022-06-01T10:15:34Z,42.805,6.029,13.3019,4.60087,2470.67,2022-6-01T12:17:17Z
2022-06-01T10:18:38Z,42.805,6.029,13.3015,4.60078,2470.693,2022-6-01T12:20:20Z
2022-06-01T10:21:41Z,42.805,6.029,13.3014,4.60091,2470.646,2022-6-01T12:23:23Z
2022-06-01T10:24:44Z,42.805,6.029,13.3016,4.60089,2470.67,2022-6-01T12:26:26Z
2022-06-01T10:27:47Z,42.805,6.029,13.3019,4.60081,2470.684,2022-6-01T12:29:29Z
2022-06-01T10:30:50Z,42.805,6.029,13.3011,4.60075,2470.684,2022-6-01T12:32:32Z
2022-06-01T10:33:53Z,42.805,6.029,13.3023,4.60084,2470.661,2022-6-01T12:35:35Z
2022-06-01T10:36:56Z,42.805,6.029,13.3019,4.60066,2470.661,2022-6-01T12:38:39Z
2022-06-01T10:39:59Z,42.805,6.029,13.3015,4.60073,2470.67,2022-6-01T12:41:42Z
2022-06-01T10:43:03Z,42.805,6.029,13.3018,4.60085,2470.646,2022-6-01T12:44:45Z
2022-06-01T10:46:06Z,42.805,6.029,13.3013,4.60097,2470.646,2022-6-01T12:47:48Z
2022-06-01T10:49:09Z,42.805,6.029,13.3030,4.60079,2470.661,2022-6-01T12:50:51Z
2022-06-01T10:52:12Z,42.805,6.029,13.3007,4.60082,2470.646,2022-6-01T12:53:54Z
2022-06-01T10:55:15Z,42.805,6.029,13.3012,4.60085,2470.646,2022-6-01T12:56:57Z
2022-06-01T10:58:18Z,42.805,6.029,13.3012,4.60075,2470.646,2022-6-01T13:00:00Z
2022-06-01T11:01:21Z,42.805,6.029,13.3015,4.60061,2470.633,2022-6-01T13:03:04Z
2022-06-01T11:04:24Z,42.805,6.029,13.3019,4.60073,2470.614,2022-6-01T13:06:07Z
2022-06-01T11:07:28Z,42.805,6.029,13.3020,4.60074,2470.624,2022-6-01T13:09:10Z
2022-06-01T11:10:31Z,42.805,6.029,13.3017,4.60074,2470.646,2022-6-01T13:12:13Z
2022-06-01T11:13:34Z,42.805,6.029,13.3011,4.60066,2470.637,2022-6-01T13:15:16Z
2022-06-01T11:16:37Z,42.805,6.029,13.3014,4.60069,2470.661,2022-6-01T13:18:19Z
2022-06-01T11:19:40Z,42.805,6.029,13.3010,4.60080,2470.624,2022-6-01T13:21:22Z
2022-06-01T11:22:43Z,42.805,6.029,13.3011,4.60064,2470.646,2022-6-01T13:24:25Z
2022-06-01T11:25:46Z,42.805,6.029,13.3009,4.60074,2470.624,2022-6-01T13:27:28Z
2022-06-01T11:28:49Z,42.805,6.029,13.3015,4.60073,2470.614,2022-6-01T13:30:32Z
2022-06-01T11:31:52Z,42.805,6.029,13.3015,4.60072,2470.624,2022-6-01T13:33:35Z
2022-06-01T11:34:56Z,42.805,6.029,13.3021,4.60075,2470.6,2022-6-01T13:36:38Z
2022-06-01T11:37:59Z,42.805,6.029,13.3017,4.60081,2470.6,2022-6-01T13:39:41Z
2022-06-01T11:41:02Z,42.805,6.029,13.3013,4.60081,2470.6,2022-6-01T13:42:44Z
2022-06-01T11:44:05Z,42.805,6.029,13.3013,4.60079,2470.6,2022-6-01T13:45:47Z
2022-06-01T11:47:08Z,42.805,6.029,13.3004,4.60082,2470.6,2022-6-01T13:48:50Z
2022-06-01T11:50:11Z,42.805,6.029,13.3013,4.60072,2470.614,2022-6-01T13:51:53Z
2022-06-01T11:53:14Z,42.805,6.029,13.3013,4.60072,2470.614,2022-6-01T13:54:57Z
2022-06-01T11:56:18Z,42.805,6.029,13.3014,4.60072,2470.614,2022-6-01T13:58:00Z
2022-06-01T11:59:21Z,42.805,6.029,13.3006,4.60076,2470.614,2022-6-01T14:01:03Z
2022-06-01T12:02:24Z,42.805,6.029,13.3013,4.60075,2470.6,2022-6-01T14:04:06Z
2022-06-01T12:05:27Z,42.805,6.029,13.3019,4.60081,2470.6,2022-6-01T14:07:09Z
2022-06-01T12:08:30Z,42.805,6.029,13.3021,4.60082,2470.591,2022-6-01T14:10:12Z
2022-06-01T12:11:33Z,42.805,6.029,13.3021,4.60084,2470.614,2022-6-01T14:13:15Z
2022-06-01T12:14:36Z,42.805,6.029,13.3015,4.60094,2470.6,2022-6-01T14:16:18Z
2022-06-01T12:17:39Z,42.805,6.029,13.3021,4.60062,2470.577,2022-6-01T14:19:22Z
2022-06-01T12:20:42Z,42.805,6.029,13.3014,4.60074,2470.6,2022-6-01T14:22:25Z
2022-06-01T12:23:46Z,42.805,6.029,13.3015,4.60089,2470.6,2022-6-01T14:25:28Z
2022-06-01T12:26:49Z,42.805,6.029,13.3011,4.60069,2470.591,2022-6-01T14:28:31Z
2022-06-01T12:29:52Z,42.805,6.029,13.3013,4.60080,2470.591,2022-6-01T14:31:34Z
2022-06-01T12:32:55Z,42.805,6.029,13.3006,4.60069,2470.6,2022-6-01T14:34:37Z
2022-06-01T12:35:58Z,42.805,6.029,13.3020,4.60077,2470.591,2022-6-01T14:37:40Z
2022-06-01T12:39:01Z,42.805,6.029,13.3009,4.60068,2470.591,2022-6-01T14:40:43Z
2022-06-01T12:42:04Z,42.805,6.029,13.3009,4.60062,2470.591,2022-6-01T14:43:47Z
2022-06-01T12:45:07Z,42.805,6.029,13.3023,4.60069,2470.577,2022-6-01T14:46:50Z
2022-06-01T12:48:11Z,42.805,6.029,13.3014,4.60076,2470.6,2022-6-01T14:49:53Z
2022-06-01T12:51:14Z,42.805,6.029,13.3004,4.60062,2470.637,2022-6-01T14:52:56Z
2022-06-01T12:54:17Z,42.805,6.029,13.3009,4.60075,2470.637,2022-6-01T14:55:59Z
2022-06-01T12:57:20Z,42.805,6.029,13.3009,4.60068,2470.577,2022-6-01T14:59:02Z
2022-06-01T13:00:23Z,42.805,6.029,13.3008,4.60066,2470.553,2022-6-01T15:02:05Z
2022-06-01T13:03:26Z,42.805,6.029,13.3012,4.60059,2470.591,2022-6-01T15:05:08Z
2022-06-01T13:06:29Z,42.805,6.029,13.3010,4.60069,2470.553,2022-6-01T15:08:11Z
2022-06-01T13:09:32Z,42.805,6.029,13.3011,4.60073,2470.614,2022-6-01T15:11:15Z
2022-06-01T13:12:35Z,42.805,6.029,13.3005,4.60069,2470.577,2022-6-01T15:14:18Z
2022-06-01T13:15:39Z,42.805,6.029,13.3018,4.60092,2470.577,2022-6-01T15:17:21Z
2022-06-01T13:18:42Z,42.805,6.029,13.3010,4.60076,2470.591,2022-6-01T15:20:24Z
2022-06-01T13:21:45Z,42.805,6.029,13.3014,4.60062,2470.6,2022-6-01T15:23:27Z
2022-06-01T13:24:48Z,42.805,6.029,13.3009,4.60076,2470.6,2022-6-01T15:26:30Z
2022-06-01T13:27:51Z,42.805,6.029,13.3010,4.60072,2470.553,2022-6-01T15:29:33Z
2022-06-01T13:30:54Z,42.805,6.029,13.3012,4.60062,2470.591,2022-6-01T15:32:36Z
2022-06-01T13:33:57Z,42.805,6.029,13.3012,4.60057,2470.577,2022-6-01T15:35:40Z
2022-06-01T13:37:00Z,42.805,6.029,13.3015,4.60074,2470.614,2022-6-01T15:38:43Z
2022-06-01T13:40:04Z,42.805,6.029,13.3012,4.60072,2470.553,2022-6-01T15:41:46Z
2022-06-01T13:43:07Z,42.805,6.029,13.3004,4.60080,2470.591,2022-6-01T15:44:49Z
2022-06-01T13:46:10Z,42.805,6.029,13.3012,4.60072,2470.591,2022-6-01T15:47:52Z
2022-06-01T13:49:13Z,42.805,6.029,13.3005,4.60064,2470.567,2022-6-01T15:50:55Z
2022-06-01T13:52:16Z,42.805,6.029,13.3008,4.60071,2470.567,2022-6-01T15:53:58Z
2022-06-01T13:55:19Z,42.805,6.029,13.3012,4.60070,2470.53,2022-6-01T15:57:01Z
2022-06-01T13:58:22Z,42.805,6.029,13.3011,4.60081,2470.53,2022-6-01T16:00:05Z
2022-06-01T14:01:25Z,42.805,6.029,13.3019,4.60087,2470.553,2022-6-01T16:03:08Z
2022-06-01T14:04:29Z,42.805,6.029,13.3011,4.60090,2470.567,2022-6-01T16:06:11Z
2022-06-01T14:07:32Z,42.805,6.029,13.3015,4.60068,2470.591,2022-6-01T16:09:14Z
2022-06-01T14:10:35Z,42.805,6.029,13.3008,4.60070,2470.6,2022-6-01T16:12:17Z
2022-06-01T14:13:38Z,42.805,6.029,13.3004,4.60053,2470.577,2022-6-01T16:15:20Z
2022-06-01T14:16:41Z,42.805,6.029,13.3017,4.60070,2470.567,2022-6-01T16:18:23Z
2022-06-01T14:19:44Z,42.805,6.029,13.3015,4.60071,2470.567,2022-6-01T16:21:26Z
2022-06-01T14:22:47Z,42.805,6.029,13.3009,4.60065,2470.591,2022-6-01T16:24:30Z
2022-06-01T14:25:50Z,42.805,6.029,13.3017,4.60069,2470.553,2022-6-01T16:27:33Z
2022-06-01T14:28:54Z,42.805,6.029,13.3011,4.60078,2470.553,2022-6-01T16:30:36Z
2022-06-01T14:31:57Z,42.805,6.029,13.3015,4.60084,2470.567,2022-6-01T16:33:39Z
2022-06-01T14:35:00Z,42.805,6.029,13.3011,4.60070,2470.567,2022-6-01T16:36:42Z
2022-06-01T14:38:03Z,42.805,6.029,13.3015,4.60072,2470.591,2022-6-01T16:39:45Z
2022-06-01T14:41:06Z,42.805,6.029,13.3014,4.60067,2470.591,2022-6-01T16:42:48Z
2022-06-01T14:44:09Z,42.805,6.029,13.3020,4.60076,2470.553,2022-6-01T16:45:51Z
2022-06-01T14:47:12Z,42.805,6.029,13.3011,4.60063,2470.544,2022-6-01T16:48:55Z
2022-06-01T14:50:15Z,42.805,6.029,13.3011,4.60067,2470.553,2022-6-01T16:51:58Z
2022-06-01T14:53:19Z,42.805,6.029,13.3012,4.60079,2470.577,2022-6-01T16:55:01Z
2022-06-01T14:56:22Z,42.805,6.029,13.3024,4.60084,2470.553,2022-6-01T16:58:04Z
2022-06-01T14:59:25Z,42.805,6.029,13.3015,4.60087,2470.567,2022-6-01T17:01:07Z
2022-06-01T15:02:28Z,42.805,6.029,13.3019,4.60072,2470.577,2022-6-01T17:04:10Z
2022-06-01T15:05:31Z,42.805,6.029,13.3025,4.60080,2470.553,2022-6-01T17:07:13Z
2022-06-01T15:08:34Z,42.805,6.029,13.3014,4.60068,2470.567,2022-6-01T17:10:16Z
2022-06-01T15:11:37Z,42.805,6.029,13.3010,4.60077,2470.553,2022-6-01T17:13:19Z